Welcome to the New NWS' Forecast!
Most changes are behind the scenes, but click here for differences you might notice.
Latest weather observations around

East Milton (KMQE)

Using English Units (Switch to International System of Units)
Date/ Time (EDT) Wind (mph) Vis. (mi) Weather Sky Cond. Temp (°F) Rel. Humidity Wind Chill (°F) Heat Index (°F) Pressure Precip. (in)
Air Dwpt 6 hour Altimeter (inHg) Sea level (inHg) 1 hr 3 hr 6 hr
Max Min
Sep 18 09:56 S 16   Clear   73 73     100%   75 29.74 29.76      
Sep 18 08:56 S 16   Clear   72 72     100%   74 29.77 29.79      
Sep 18 07:56 S 17   Clear   71 71     100%   73 29.8 29.82     0
Sep 18 06:56 S 17   Clear   70 70     100%     29.82 29.83      
Sep 18 05:56 SSE 14   Clear   70 70     100%     29.85 29.87 0    
Sep 18 04:56 S 10   Clear   70 70     100%     29.88 29.89 0 0  
Sep 18 03:56 S 10   Clear   69 69     100%     29.9 29.92      
Sep 18 02:56 S 9   Clear   69 69     100%     29.92 29.94 0    
Sep 18 01:56 SSW 11   Clear   69 69     100%     29.95 29.96 0   0
Sep 18 00:56 SSW 11   Clear   69 69     100%     29.96 29.97      
Sep 17 23:56 SSW 10   Clear   69 68     96%     29.97 29.98      
Sep 17 22:56 S 10   Clear   69 68     96%     29.97 29.99      
Sep 17 21:56 SSW 13   Clear   69 68     96%     29.98 30      
Sep 17 20:56 S 11   Clear   69 68     96%     29.99 30.02      
Sep 17 19:56 S 11   Clear   70 67     90%     30 30.03      
Sep 17 18:56 SSW 9   Clear   72 67     84%   73 30.01 30.03      
Sep 17 17:56 SW 11   Clear   73 65     76%   74 30.02 30.04      
Sep 17 16:56 SW 13   Clear   76 63     64%   76 30.02 30.04      
Sep 17 15:56 SSW 9   Clear   77 65     66%   78 30.04 30.06      
Sep 17 14:56 S 11   Clear   80 64     58%   82 30.06 30.08      
Sep 17 13:56 SSW 13   Clear   80 63     56%   81 30.07 30.09      
Sep 17 12:56 SW 13   Clear   78 63     60%   78 30.1 30.12      
Sep 17 11:56 SW 9   Clear   77 64     64%   77 30.12 30.14      
Sep 17 10:56 SW 10   Clear   74 66     76%   75 30.14 30.16      
Sep 17 09:56 SW 8   Clear   70 66     87%     30.15 30.17      
Sep 17 08:56 SW 10   Clear   66 66     100%     30.16 30.18      
Sep 17 07:56 SSW 11   Clear   64 64     100%     30.16 30.19      
Sep 17 06:56 SW 9   Clear   64 64     100%     30.17 30.19      
Sep 17 05:56 SSW 10   Clear   65 65     100%     30.16 30.18      
Sep 17 04:56 S 8   Clear   65 65     100%     30.16 30.18      
Sep 17 03:56 S 10   Clear   65 65     100%     30.17 30.19      
Sep 17 02:56 S 8   Clear   65 65     100%     30.18 30.2      
Sep 17 01:56 S 7   Clear   65 65     100%     30.2 30.21      
Sep 17 00:56 S 8   Clear   65 65     100%     30.2 30.22      
Sep 16 23:56 S 8   Clear   65 65     100%     30.21 30.23      
Sep 16 22:56 S 8   Clear   66 66     100%     30.22 30.24      
Sep 16 21:56 S 8   Clear   68 66     93%     30.21 30.23      
Sep 16 20:56 S 8   Clear   70 68     93%     30.21 30.23      
Sep 16 19:56 S 10   Clear   72 67     84%   73 30.19 30.22      
Sep 16 18:56 SSE 8   Clear   75 66     74%   76 30.19 30.21      
Sep 16 17:56 ESE 6   Clear   79 64     60%   79 30.19 30.21      
Sep 16 16:56 SE 6   Clear   82 65     56%   84 30.19 30.21      
Sep 16 15:56 ESE 3   Clear   82 65     56%   84 30.19 30.21      
Sep 16 14:56 Calm   Clear   83 66     57%   85 30.19 30.21      
Sep 16 13:56 SE 3   Clear   81 65     58%   83 30.21 30.23      
Sep 16 12:56 5   Clear   80 65     60%   82 30.21 30.23      
Sep 16 11:56 S 3   Clear   80 68     67%   83 30.21 30.24      
Sep 16 10:56 Calm   Clear   77 68     74%   78 30.22 30.24      
Sep 16 09:56 Calm   Clear   74 67     79%   75 30.22 30.24      
Sep 16 08:56 Calm   Clear   71 66     84%   72 30.21 30.23      
Sep 16 07:56 NW 5   Clear   66 65     96%     30.21 30.23      
Sep 16 06:56 NW 8   Clear   63 63     100%     30.2 30.22      
Sep 16 05:56 W 8   Clear   61 61     100%     30.19 30.22      
Sep 16 04:56 SW 8   Clear   62 62     100%     30.18 30.2      
Sep 16 03:56 SW 9   Clear   62 61     96%     30.17 30.19      
Sep 16 02:56 SW 8   Clear   62 61     96%     30.18 30.2      
Sep 16 01:56 SW 9   Clear   63 61     93%     30.18 30.2      
Sep 16 00:56 SW 10   Clear   63 61     93%     30.19 30.21      
Sep 15 23:56 SSW 10   Clear   63 62     97%     30.19 30.22      
Sep 15 22:56 SSW 10   Clear   63 62     97%     30.19 30.22      
Sep 15 21:56 S 10   Clear   64 62     93%     30.19 30.22      
Sep 15 20:56 SSE 8   Clear   64 62     93%     30.19 30.22      
Sep 15 19:56 SE 8   Clear   65 64     97%     30.19 30.22      
Sep 15 18:56 E 7   Clear   68 65     90%     30.18 30.21      
Sep 15 17:56 ENE 5   Clear   72 66     82%   73 30.19 30.21      
Sep 15 16:56 Calm   Clear   74 63     69%   74 30.18 30.21      
Sep 15 15:56 S 6   Clear   74 65     74%   74 30.19 30.21      
Sep 15 14:56 E 3   Clear   71 65     81%   72 30.19 30.22      
Sep 15 13:56 Calm   Clear   69 65     87%     30.21 30.23      
Sep 15 12:56 Calm   Clear   67 65     93%     30.22 30.24      
Sep 15 11:56 Calm   Clear   66 65     96%     30.22 30.24      
Sep 15 10:56 Calm   Clear   64 64     100%     30.23 30.26      
Sep 15 09:56 Calm   Clear   64 64     100%     30.23 30.25      
Sep 15 08:56 Calm   Clear   63 63     100%     30.22 30.25      
Sep 15 07:56 Calm   Clear   63 63     100%     30.23 30.25      
Sep 15 06:56 Calm   Clear   62 62     100%     30.22 30.25      
Sep 15 05:56 Calm   Clear   62 62     100%     30.21 30.24      
Sep 15 04:56 SW 6   Clear   62 62     100%     30.2 30.22      
Sep 15 03:56 WSW 6   Clear   62 62     100%     30.2 30.23      
Sep 15 02:56 S 6   Clear   62 62     100%     30.21 30.24      
Sep 15 01:56 S 6   Clear   62 62     100%     30.22 30.25      
Sep 15 00:56 S 7   Clear   62 62     100%     30.22 30.25      
Sep 14 23:56 SE 6   Clear   62 62     100%     30.23 30.25      
Sep 14 22:56 SE 7   Clear   62 62     100%     30.23 30.26      
Sep 14 21:56 SE 7   Clear   63 63     100%     30.23 30.25      
Sep 14 20:56 ESE 7   Clear   63 63     100%     30.23 30.25      
Sep 14 19:56 E 8   Clear   65 63     93%     30.22        
Sep 14 18:56 E 8   Clear   66 64     93%     30.22 30.24      
Sep 14 17:56 ENE 6   Clear   69 64     84%     30.23 30.25      
Sep 14 16:56 ENE 7   Clear   72 65     79%   73 30.23 30.25      
Sep 14 15:56 E 6   Clear   74 66     76%   75 30.23 30.25      
Sep 14 14:56 ESE 3   Clear   72 65     79%   73 30.25 30.27      
Sep 14 13:56 ENE 6   Clear   74 65     74%   74 30.26 30.29      
Sep 14 12:56 ENE 8   Clear   72 63     73%   72 30.27 30.29      
Sep 14 11:56 3   Clear   73 64     73%   73 30.27 30.3      
Sep 14 10:56 Calm   Clear   72 65     79%   73 30.29 30.31      
Sep 14 09:56 ENE 5   Clear   69 64     84%     30.29 30.31      
Sep 14 08:56 3   Clear   67 64     90%     30.29 30.31      
May 15 04:56 SSW 14   Clear   54 54     100%     29.85 29.88      
May 14 20:56 S 11   Clear   58 52     81%     29.88 29.91      
May 13 23:56 S 10   Clear   47 46     97% 42   30.06 30.1      
May 12 16:56 NNE 8   Clear   47 47     100% 43   30.1 30.13 0 0  
May 12 02:56 NE 10   Clear   50 39     66% 46   30.15 30.18      
Jun 11 15:56 SW 18   Clear   88 58     36%   87 29.93 29.94      
Notice The following observation data may not be complete
Jun 09 13:56 WNW 15   Clear     49      %     29.63 29.65      
Notice The following observation data may not be complete
Jun 09 08:56     Clear            %              
Jun 08 21:56 SE 7   Clear   57 40     53%     29.87 29.89      
Jun 08 14:56 SE 9   Clear   73 42     33%   72 29.97 30      
Jun 08 13:56 S 9   Clear   76 44     32%   75 29.99 30.01      
Jun 08 08:56 3   Clear   65 48     54%     30.04 30.07      
Jun 07 22:56 S 10   Clear   56 38     51%     30.02 30.04      
Jun 07 19:56 ESE 7   Clear   60 41     49%     29.99 30.02      
Jun 07 14:56 NE 11   Clear   64 42     45%     29.95 29.98      
Jun 07 11:56 7   Clear   61 50     67%     29.96 29.99      
Jun 06 03:56 NE 17   Clear   49 48     97% 43   29.75 29.79 0    
Jun 05 18:56 ENE 17   Clear   51 50     96%     29.81 29.85 0